Weather History for Cut Bank, MT

Change the Weather History Date:

Tuesday, November 20, 2012

  Actual Average Record
Temperature  
Mean Temperature 46 °F 28 °F  
Max Temperature 53 °F 38 °F 62 °F (1987)
Min Temperature 39 °F 19 °F -21 °F (1921)
Degree Days  
Heating Degree Days 19 37  
Month to date heating degree days 610 654  
Since 1 July heating degree days 1781 1878  
Cooling Degree Days 0 0  
Month to date cooling degree days 0 0  
Year to date cooling degree days 210 162  
Moisture  
Dew Point 35 °F    
Average Humidity 62    
Maximum Humidity 76    
Minimum Humidity 48    
Precipitation  
Precipitation T in 0.01 in 0.30 in (1970)
Month to date precipitation 0.04 0.25  
Year to date precipitation 8.29 10.57  
Snow  
Snow 0.00 in - - ()
Snow Depth 0.00 in    
Sea Level Pressure  
Sea Level Pressure 29.72 in    
Wind  
Wind Speed 13 mph (SW)    
Max Wind Speed 33 mph    
Max Gust Speed 43 mph    
Visibility 10 miles    
Events Rain    
T = Trace of Precipitation, MM = Missing Value Source: NWS Daily Summary

Daily Weather History Graph

Daily Weather History Graph

Search for Another Location

Airport:

Trip Planner

Search our weather history database for the weather conditions in past years. The results will help you decide how hot, cold, wet, or windy it might be!

Date:

Astronomy

Nov. 20, 2012 Rise Set
Actual Time 7:46 AM MST 4:43 PM MST
Civil Twilight 7:11 AM MST 5:18 PM MST
Nautical Twilight 6:32 AM MST 5:57 PM MST
Astronomical Twilight 5:55 AM MST 6:34 PM MST
Moon 1:04 PM MST No Moon Set
Length of Visible Light 10h 07m
Length of Day
8h 57m
First Quarter, 52% of the Moon is Illuminated
Nov 20
First Quarter
Nov 28
Full
Dec 6
Last Quarter
Dec 13
New
Dec 19
First Quarter

Hourly Weather History & Observations

Time (MST) Temp. Windchill Dew Point Humidity Pressure Visibility Wind Dir Wind Speed Gust Speed Precip Events Conditions
12:56 AM 50.0 °F - 32.0 °F 50% 29.65 in 10.0 mi South 23.0 mph 32.2 mph N/A   Clear
1:56 AM 46.0 °F 42.5 °F 33.1 °F 61% 29.65 in 10.0 mi South 6.9 mph - N/A   Clear
2:56 AM 48.0 °F - 33.1 °F 56% 29.65 in 10.0 mi SW 18.4 mph 27.6 mph N/A   Clear
3:56 AM 48.9 °F - 33.1 °F 54% 29.66 in 10.0 mi SSW 19.6 mph 36.8 mph N/A   Clear
4:56 AM 46.9 °F - 34.0 °F 61% 29.67 in 10.0 mi South 23.0 mph 27.6 mph N/A   Clear
5:56 AM 45.0 °F 37.6 °F 35.1 °F 68% 29.73 in 10.0 mi SSW 17.3 mph - N/A   Clear
6:56 AM 48.0 °F - 35.1 °F 61% 29.73 in 10.0 mi SSW 20.7 mph 31.1 mph N/A   Clear
7:56 AM 46.9 °F - 35.1 °F 63% 29.71 in 10.0 mi West 25.3 mph 33.4 mph N/A   Clear
8:56 AM 45.0 °F 38.2 °F 36.0 °F 71% 29.76 in 10.0 mi SSW 15.0 mph 28.8 mph N/A   Clear
9:06 AM 44.6 °F 39.2 °F 35.6 °F 71% 29.76 in 10.0 mi South 10.4 mph - N/A   Clear
9:56 AM 48.0 °F - 35.1 °F 61% 29.75 in 10.0 mi WSW 23.0 mph 35.7 mph N/A   Clear
10:56 AM 50.0 °F - 34.0 °F 54% 29.73 in 10.0 mi West 28.8 mph 35.7 mph N/A   Clear
11:56 AM 50.0 °F - 35.1 °F 57% 29.71 in 10.0 mi West 23.0 mph 29.9 mph N/A   Clear
12:56 PM 51.8 °F - 35.6 °F 54% 29.73 in 10.0 mi West 6.9 mph - N/A   Mostly Cloudy
1:56 PM 52.0 °F - 35.1 °F 53% 29.70 in 10.0 mi ESE 4.6 mph - N/A   Mostly Cloudy
2:56 PM 52.0 °F - 35.1 °F 53% 29.71 in 10.0 mi ESE 4.6 mph - N/A   Mostly Cloudy
3:56 PM 48.9 °F - 36.0 °F 61% 29.72 in 10.0 mi Calm Calm - N/A   Overcast
4:56 PM 46.9 °F - 36.0 °F 66% 29.74 in 10.0 mi NE 4.6 mph - N/A   Mostly Cloudy
5:56 PM 46.9 °F - 36.0 °F 66% 29.73 in 10.0 mi Calm Calm - N/A   Mostly Cloudy
6:56 PM 42.1 °F 40.2 °F 35.1 °F 76% 29.74 in 10.0 mi NNE 3.5 mph - N/A   Mostly Cloudy
7:56 PM 44.1 °F 42.5 °F 36.0 °F 73% 29.75 in 10.0 mi North 3.5 mph - N/A   Overcast
8:56 PM 42.1 °F 40.2 °F 35.1 °F 76% 29.75 in 10.0 mi South 3.5 mph - N/A   Clear
9:56 PM 45.0 °F - 36.0 °F 71% 29.72 in 10.0 mi Calm Calm - N/A   Partly Cloudy
10:56 PM 44.1 °F 38.1 °F 37.0 °F 76% 29.75 in 10.0 mi West 11.5 mph - N/A   Overcast
11:56 PM 39.9 °F 31.8 °F 36.0 °F 86% 29.76 in 10.0 mi West 15.0 mph 24.2 mph 0.00 in Rain Light Rain